Temperature
8 8 9 9 9 9 9 9 9 9 10 10 10 10 10 10 10 10 11 11 11 11 11 11 11 11 11 11 11 11 11 11 11 11 11 11 11 11 11 11 11 11 10
8 8 8 8 8 8 8 8 8 9 9 9 9 9 9 10 10 10 10 10 10 10 10 10 10 10 10 11 11 11 11 11 11 11 11 11 11 11 11 11 10 10 10
7 7 7 7 7 7 7 8 8 8 8 8 9 9 9 9 9 9 9 10 10 10 10 10 10 10 10 10 10 10 10 11 10 10 10 10 10 10 10 10 10 10 10
6 6 6 6 7 7 7 7 7 7 7 8 8 8 8 9 9 9 9 9 9 9 9 9 9 10 10 10 10 10 10 10 10 10 10 10 10 10 10 10 10 10 10
5 5 6 6 6 6 6 6 6 6 7 7 7 7 7 8 8 8 8 8 9 9 9 9 9 9 9 9 9 9 9 10 10 10 10 10 10 10 10 10 10 10 10
5 5 5 5 5 5 5 6 6 6 6 6 6 6 7 7 7 8 8 8 8 8 8 8 8 8 9 9 9 9 9 9 9 9 9 9 9 9 9 9 9 9 9
4 4 4 4 5 5 5 5 5 5 5 5 5 6 6 6 7 7 7 7 7 7 7 8 8 8 8 8 8 8 8 8 9 9 9 9 9 9 9 9 9 9 9
3 3 4 4 4 4 4 4 4 4 5 4 4 4 4 5 6 6 7 7 7 7 7 7 7 7 8 8 8 8 8 8 8 8 9 9 9 9 9 9 9 9 9
2 3 3 3 3 3 3 3 3 3 4 4 4 3 3 3 3 5 6 6 6 6 6 7 7 7 7 7 7 8 8 8 8 8 8 8 8 9 9 9 9 9 9
2 2 2 2 2 2 2 3 3 3 3 3 3 3 3 3 3 3 4 5 5 5 6 6 6 6 6 7 7 7 7 7 7 7 8 8 8 8 8 8 8 8 8
1 1 1 1 2 2 2 2 2 2 2 2 2 2 3 3 2 2 2 3 4 5 5 5 5 6 6 6 6 6 7 7 7 7 7 7 7 8 8 8 8 8 8
1 1 1 1 1 1 1 1 1 1 1 1 2 2 2 2 2 2 2 2 3 4 4 4 5 5 5 5 5 6 6 6 6 6 6 7 7 7 7 7 7 7 7
0 0 0 0 0 0 1 1 1 1 1 1 1 1 1 1 2 2 2 1 1 2 3 4 4 4 4 5 5 5 5 5 6 6 6 6 6 6 7 7 7 7 7
-1 -1 -1 -0 -0 -0 0 0 0 0 0 0 1 1 1 1 1 1 1 1 1 1 2 3 3 4 4 4 4 4 4 5 5 5 5 5 6 6 6 6 6 6 6
-1 -1 -1 -1 -1 -1 -1 -0 -0 -0 -0 0 0 0 0 0 0 1 1 1 1 1 1 2 2 3 3 3 3 4 4 4 4 5 5 5 5 5 5 5 5 5 5
-1 -1 -1 -1 -1 -1 -1 -1 -1 -1 -0 -0 -0 -0 -0 -0 -0 0 0 0 0 0 0 1 1 2 2 2 2 3 3 3 4 4 4 4 5 5 5 5 5 5 5
-2 -2 -2 -2 -2 -2 -2 -1 -1 -1 -1 -1 -1 -1 -1 -1 -1 -0 -0 -0 -0 -0 -0 0 0 1 1 1 2 2 2 2 3 3 3 4 4 4 4 4 4 4 4
-3 -3 -3 -3 -2 -2 -2 -2 -2 -2 -2 -1 -1 -1 -1 -1 -1 -1 -1 -1 -1 -1 -1 -1 -0 -0 0 1 1 1 1 2 2 2 3 3 3 3 3 3 4 4 4
-3 -3 -3 -3 -3 -3 -3 -3 -2 -2 -2 -2 -2 -2 -2 -2 -1 -1 -1 -1 -1 -1 -1 -1 -1 -1 -1 -0 -0 0 0 1 1 1 2 2 2 2 3 3 3 3 3
-4 -4 -4 -3 -3 -3 -3 -3 -3 -3 -3 -2 -2 -2 -2 -2 -2 -2 -2 -2 -2 -2 -2 -2 -1 -1 -1 -1 -1 -1 -0 -0 0 0 1 1 1 1 2 2 2 2 2
-4 -4 -4 -4 -4 -4 -4 -4 -4 -4 -3 -3 -3 -3 -3 -3 -2 -2 -2 -2 -2 -2 -2 -2 -2 -2 -2 -2 -2 -1 -1 -1 -1 -0 -0 0 0 1 1 1 1 1 2
-5 -5 -5 -5 -4 -4 -4 -4 -4 -4 -4 -4 -3 -3 -3 -3 -3 -3 -3 -3 -3 -3 -3 -2 -2 -2 -2 -2 -2 -2 -2 -2 -2 -1 -1 -1 -1 -0 -0 0 1 1 1
-5 -5 -5 -5 -5 -5 -5 -5 -5 -5 -4 -4 -4 -4 -4 -4 -4 -3 -3 -3 -3 -3 -3 -3 -3 -3 -3 -3 -3 -3 -3 -3 -3 -2 -2 -2 -1 -1 -1 -1 -0 -0 0
-6 -6 -6 -6 -6 -5 -5 -5 -5 -5 -5 -5 -5 -4 -4 -4 -4 -4 -4 -4 -4 -4 -4 -4 -3 -3 -3 -3 -3 -3 -3 -3 -3 -3 -3 -3 -2 -2 -1 -1 -1 -1 -0
-6 -6 -6 -6 -6 -6 -6 -6 -6 -6 -6 -5 -5 -5 -5 -5 -5 -5 -5 -4 -4 -4 -4 -4 -4 -4 -4 -4 -4 -4 -4 -4 -4 -4 -4 -4 -3 -3 -2 -2 -2 -1 -1
-7 -7 -7 -7 -7 -6 -6 -6 -6 -6 -6 -6 -6 -6 -6 -6 -5 -5 -5 -5 -5 -4 -4 -4 -4 -4 -4 -4 -4 -4 -4 -5 -5 -5 -4 -4 -4 -4 -4 -3 -2 -2 -2
Wind_Speed
4 4 3 4 4 4 4 4 3 4 4 3 3 3 2 1 1 1 0 1 2 1 1 3 3 4 4 4 4 4 5 4 4 4 5 6 5 5 5 5 6 6 6
4 3 3 3 3 3 3 3 2 3 2 2 2 2 1 0 0 1 1 2 2 2 3 3 3 4 4 4 4 3 4 4 3 3 4 5 5 5 5 5 6 6 6
4 4 3 3 3 2 3 3 3 3 2 2 2 2 1 1 1 1 1 2 2 3 3 4 3 4 4 5 4 4 4 4 4 3 4 5 6 6 6 6 6 6 6
4 3 2 3 3 3 3 2 2 1 1 2 2 2 2 2 2 2 1 1 1 2 3 4 4 4 4 5 5 5 5 4 5 4 5 5 6 7 7 7 6 6 6
3 3 2 2 2 2 2 2 2 1 1 2 2 2 1 2 2 1 1 0 1 1 2 4 4 3 4 5 6 5 5 5 5 5 6 6 6 7 8 8 7 6 5
3 3 2 2 2 2 1 1 1 1 1 1 2 2 2 2 2 1 1 1 1 1 1 1 2 2 3 4 6 6 6 5 5 5 5 7 7 7 8 9 8 7 6
3 3 3 3 2 1 1 1 1 1 1 1 1 2 2 2 2 1 1 1 1 1 1 1 1 2 2 3 5 6 7 6 6 6 5 7 8 8 8 9 9 8 7
3 3 3 2 2 1 1 1 1 1 1 1 1 1 1 2 2 2 2 2 1 1 1 2 2 2 2 3 4 5 7 7 7 7 7 6 8 8 9 8 9 9 8
3 3 3 3 3 1 1 1 1 1 1 1 1 1 1 2 3 2 1 1 1 1 1 2 3 3 4 4 4 4 5 7 8 8 8 8 8 8 7 8 9 10 9
3 3 3 3 3 2 2 2 1 1 1 2 2 1 2 1 1 2 2 2 2 2 2 2 3 4 5 5 5 5 6 6 8 9 9 8 9 9 9 8 8 8 10
2 3 3 2 2 2 2 2 2 2 2 2 2 2 2 2 2 2 4 4 3 2 2 2 3 4 5 5 6 6 7 8 8 8 9 9 9 9 9 8 9 8 8
2 2 3 3 2 2 2 2 3 2 2 2 2 2 2 2 2 2 3 4 5 4 3 3 3 4 5 6 7 7 7 8 9 9 9 10 10 9 10 10 9 9 9
2 3 3 3 3 3 3 3 2 3 3 3 3 3 3 4 3 3 4 4 5 5 3 3 3 4 4 5 6 7 8 8 9 10 10 11 10 9 9 9 9 9 9
4 4 3 3 4 4 4 3 3 4 3 4 4 4 4 4 3 3 4 4 5 5 4 4 2 3 4 5 7 8 8 9 9 10 10 9 9 8 8 8 8 9 9
4 4 4 4 4 4 4 4 3 4 4 4 5 5 4 4 3 4 4 4 5 6 6 4 2 2 4 5 7 7 7 9 10 9 10 9 8 9 8 8 8 8 7
4 4 4 4 4 5 5 4 4 4 5 5 4 5 5 4 4 4 4 4 5 5 7 4 3 3 4 6 8 8 8 9 9 9 9 9 8 8 8 8 8 8 7
4 4 5 5 5 5 4 4 4 5 6 5 5 5 6 5 5 4 4 4 5 4 7 6 4 3 4 5 6 7 8 8 8 9 10 9 9 8 9 9 8 8 8
5 5 5 5 5 5 5 5 6 6 6 6 6 6 6 5 6 5 4 5 5 5 6 7 6 4 5 4 5 5 5 6 7 9 10 10 9 9 8 8 9 9 8
5 5 5 5 6 6 5 5 6 6 7 7 7 7 7 6 6 5 6 6 5 5 5 6 6 4 4 4 4 5 5 5 6 7 9 9 8 8 8 8 8 8 8
5 5 5 6 6 6 6 6 6 6 6 7 7 7 7 7 7 7 7 6 6 5 5 5 5 4 4 4 3 4 5 4 5 6 7 7 8 8 8 8 8 8 8
5 5 5 5 5 5 6 6 6 6 6 6 6 6 7 8 9 8 7 6 6 5 5 5 5 4 4 4 4 3 5 4 5 4 4 5 4 5 6 8 8 8 9
5 5 5 5 6 6 8 10 8 6 6 6 6 6 6 7 8 9 10 9 8 7 7 6 6 6 5 5 4 4 4 4 5 2 3 5 4 4 5 6 8 8 8
5 5 5 5 6 7 10 10 10 7 6 6 6 6 5 6 7 6 8 9 8 8 9 7 7 7 6 6 5 6 5 6 6 4 4 6 4 5 6 7 9 9 9
5 5 6 6 6 7 9 10 10 6 5 6 6 6 6 6 6 7 6 6 6 6 7 6 6 7 7 7 7 7 7 6 5 4 4 6 4 5 6 8 10 9 8
5 5 6 6 6 7 9 9 9 5 5 6 6 6 6 6 9 9 7 6 6 6 7 9 9 8 9 9 7 4 5 5 6 5 3 4 4 4 5 5 8 9 8
5 5 6 5 6 6 9 9 9 4 5 5 5 5 7 8 9 9 6 6 7 6 5 5 5 6 5 6 7 6 5 5 5 5 3 3 4 2 3 4 5 6 7
Wind_Direction
38 39 44 42 35 29 20 11 7 3 2 9 42 57 48 65 117 119 164 226 211 189 168 183 173 177 180 173 166 160 161 159 158 160 163 155 151 153 150 152 157 158 156
45 34 28 30 24 11 3 0 354 354 349 1 12 21 11 346 222 226 233 230 220 217 215 210 204 195 192 190 190 181 175 179 178 183 181 180 176 171 167 169 166 169 167
49 43 22 14 4 348 357 4 7 12 7 4 348 340 346 314 272 259 242 232 230 224 222 220 212 208 205 204 209 207 202 198 196 200 204 199 192 188 188 185 184 184 185
43 44 23 359 356 4 10 360 5 14 358 349 329 304 311 302 283 261 245 242 235 227 228 228 229 227 225 218 215 213 211 210 209 218 215 210 200 197 199 195 193 196 197
36 32 10 350 3 13 10 359 3 349 333 337 312 298 283 263 263 258 277 229 214 212 223 235 231 230 234 229 223 221 218 222 223 226 224 216 212 207 203 203 204 204 205
27 25 6 353 12 10 356 9 358 349 303 298 307 314 289 261 245 220 241 271 244 234 254 261 218 228 240 241 234 229 228 232 236 236 237 226 221 219 215 211 211 213 215
11 13 4 352 358 345 321 338 355 346 334 345 4 340 327 293 250 243 261 269 292 266 250 248 230 235 250 256 248 243 236 236 242 246 246 232 224 225 225 219 215 216 218
7 7 5 341 334 328 330 330 357 330 331 5 32 5 329 324 317 290 246 218 250 345 294 258 261 254 260 256 260 256 245 241 245 251 250 243 230 232 228 225 223 217 214
352 349 340 333 331 307 257 292 290 315 289 305 322 159 193 243 309 299 284 250 240 246 278 282 258 269 262 262 258 250 254 252 250 253 252 245 236 231 231 230 229 219 210
336 337 330 327 319 313 252 260 297 286 240 270 290 279 259 238 236 284 301 293 267 251 244 276 268 266 261 262 257 261 252 260 261 256 249 245 238 234 235 232 230 223 215
318 319 314 308 310 307 272 260 276 260 242 256 271 289 287 279 247 246 269 287 298 262 249 261 261 261 258 257 256 256 262 252 261 266 256 250 244 239 236 236 233 230 223
284 301 306 306 309 304 291 265 262 261 254 253 263 273 278 257 245 257 257 269 281 284 276 257 252 253 254 258 256 255 263 261 257 265 266 255 250 244 239 238 234 234 232
260 264 290 288 293 296 294 293 256 258 254 251 253 265 272 266 263 265 259 267 283 291 282 255 245 247 260 263 266 263 262 270 263 261 267 263 252 249 245 239 239 237 239
244 254 262 271 280 284 289 291 264 251 252 250 257 259 266 271 265 260 255 260 272 279 275 253 256 248 266 280 280 273 267 266 269 263 264 268 261 247 246 240 244 242 244
252 250 253 261 274 277 276 271 259 248 249 249 251 252 258 266 262 263 255 244 249 266 272 252 242 262 281 283 290 287 280 272 267 269 263 262 263 249 237 238 242 245 245
247 247 249 251 260 266 268 262 265 252 246 250 252 252 259 262 260 257 253 254 251 256 267 269 266 275 282 285 285 284 279 275 274 273 265 260 258 248 240 234 236 241 241
243 242 247 250 252 256 258 252 259 257 244 248 251 253 260 264 257 253 251 249 254 256 262 279 282 278 271 274 282 279 277 272 267 269 270 261 255 250 243 234 234 235 238
245 246 247 246 249 253 250 249 256 263 245 244 245 248 256 261 257 260 253 250 252 255 257 272 279 276 272 265 273 280 285 283 278 270 269 264 256 252 247 241 236 233 236
246 250 245 242 246 247 247 248 248 256 248 243 244 245 252 254 257 256 253 250 251 257 254 261 271 277 277 274 279 282 282 285 283 278 272 263 258 254 253 248 241 237 236
240 243 248 247 248 250 252 253 252 253 252 247 247 248 251 249 250 253 254 248 246 249 254 255 262 265 269 268 262 270 283 287 282 284 285 274 263 260 262 255 248 242 238
247 246 249 251 252 250 248 248 249 254 254 251 252 252 253 259 263 259 260 251 244 246 252 258 256 260 261 256 257 268 272 285 278 279 281 275 272 262 269 260 249 240 238
240 241 242 247 255 261 269 270 265 257 256 250 254 258 262 264 267 273 275 274 261 251 250 254 253 248 255 256 260 261 266 272 276 265 264 263 256 260 274 267 257 247 243
241 244 246 248 253 260 271 272 272 266 254 247 249 253 264 267 275 269 277 281 276 271 264 258 253 249 250 246 248 256 254 257 264 263 269 263 248 258 268 274 269 250 243
239 245 252 252 255 264 273 274 274 268 256 247 244 245 247 254 260 265 265 266 260 261 263 263 250 248 247 241 239 247 257 267 273 263 257 260 256 258 270 270 265 257 251
243 246 250 247 253 267 274 273 274 257 253 252 251 252 249 248 263 272 268 264 266 268 273 269 264 259 259 257 249 245 249 256 267 262 249 253 259 270 267 263 260 255 255
247 252 259 253 251 258 270 273 271 252 251 255 252 253 260 261 266 272 262 258 262 265 264 271 272 269 267 263 260 242 235 244 262 264 241 239 251 264 270 257 249 255 255
Height
1532 1532 1532 1533 1533 1533 1533 1534 1534 1535 1536 1536 1536 1537 1537 1538 1538 1539 1539 1540 1541 1541 1542 1543 1543 1544 1545 1545 1546 1547 1547 1548 1548 1549 1550 1550 1551 1552 1552 1553 1553 1553 1554
1530 1530 1531 1531 1531 1532 1532 1532 1533 1533 1533 1534 1534 1535 1535 1536 1536 1537 1537 1538 1539 1539 1540 1541 1541 1542 1543 1543 1544 1545 1545 1546 1547 1547 1548 1549 1549 1550 1551 1551 1552 1552 1553
1528 1528 1529 1529 1529 1530 1530 1530 1531 1531 1531 1532 1532 1532 1533 1533 1534 1534 1535 1535 1536 1537 1538 1539 1539 1540 1540 1541 1542 1543 1543 1544 1545 1545 1546 1546 1547 1548 1549 1550 1550 1550 1551
1526 1526 1526 1527 1527 1527 1527 1528 1528 1528 1528 1529 1529 1530 1530 1531 1531 1531 1532 1532 1533 1534 1535 1536 1537 1537 1538 1539 1539 1540 1541 1541 1542 1543 1543 1544 1545 1546 1547 1547 1548 1548 1549
1523 1523 1524 1524 1524 1524 1524 1525 1525 1525 1526 1526 1526 1527 1527 1528 1528 1529 1529 1529 1530 1531 1532 1533 1534 1534 1535 1536 1536 1537 1538 1539 1539 1540 1540 1541 1542 1543 1544 1545 1545 1546 1547
1521 1521 1521 1521 1521 1521 1522 1522 1522 1523 1523 1523 1523 1524 1524 1525 1525 1525 1526 1527 1527 1528 1529 1529 1530 1531 1531 1532 1533 1534 1535 1535 1536 1537 1538 1538 1539 1540 1541 1542 1543 1543 1544
1518 1518 1518 1518 1518 1518 1518 1519 1519 1520 1520 1520 1520 1519 1520 1521 1521 1522 1523 1523 1524 1525 1525 1526 1527 1527 1528 1529 1530 1531 1532 1532 1533 1534 1534 1535 1536 1537 1538 1539 1540 1541 1541
1515 1515 1515 1515 1515 1515 1516 1516 1516 1516 1516 1517 1517 1516 1516 1517 1517 1518 1518 1519 1520 1521 1522 1522 1523 1524 1524 1525 1526 1527 1528 1529 1529 1530 1531 1531 1533 1533 1534 1535 1536 1537 1538
1512 1512 1512 1512 1512 1512 1512 1513 1513 1513 1513 1514 1515 1516 1515 1514 1513 1513 1514 1515 1516 1516 1517 1518 1519 1520 1520 1521 1522 1523 1523 1524 1525 1526 1527 1527 1528 1529 1530 1531 1532 1533 1534
1509 1509 1509 1509 1509 1509 1509 1509 1510 1510 1511 1511 1512 1513 1514 1512 1512 1510 1510 1511 1512 1512 1513 1514 1514 1515 1516 1517 1517 1518 1519 1520 1521 1522 1522 1523 1524 1525 1526 1527 1528 1529 1530
1505 1506 1505 1505 1505 1505 1506 1506 1506 1507 1507 1508 1508 1508 1509 1510 1509 1509 1506 1506 1507 1508 1508 1509 1510 1511 1511 1512 1513 1513 1514 1515 1516 1517 1518 1519 1519 1520 1521 1522 1523 1524 1525
1501 1501 1501 1501 1501 1501 1502 1502 1503 1503 1503 1504 1504 1505 1505 1505 1505 1505 1503 1502 1502 1502 1503 1504 1505 1506 1506 1507 1508 1509 1509 1510 1511 1512 1512 1514 1514 1515 1516 1517 1518 1519 1519
1496 1497 1497 1497 1497 1497 1498 1498 1499 1499 1499 1499 1500 1500 1501 1501 1501 1501 1501 1499 1498 1497 1497 1499 1500 1501 1502 1502 1503 1503 1504 1505 1506 1507 1507 1508 1509 1510 1510 1511 1513 1513 1514
1492 1492 1493 1493 1493 1493 1494 1494 1494 1495 1495 1495 1495 1496 1496 1496 1497 1497 1497 1496 1495 1493 1492 1492 1494 1496 1497 1497 1497 1498 1498 1499 1500 1501 1502 1503 1504 1505 1505 1506 1507 1508 1509
1487 1488 1489 1489 1489 1489 1489 1490 1490 1490 1490 1490 1491 1491 1492 1492 1492 1492 1493 1493 1493 1489 1486 1487 1488 1490 1491 1491 1492 1492 1492 1493 1494 1494 1496 1497 1498 1499 1500 1500 1501 1502 1503
1482 1483 1483 1484 1484 1484 1485 1485 1485 1485 1486 1486 1486 1486 1486 1487 1487 1487 1487 1487 1487 1487 1483 1481 1483 1484 1485 1486 1486 1487 1487 1487 1487 1488 1489 1490 1491 1492 1493 1495 1496 1497 1498
1477 1478 1478 1479 1479 1479 1480 1480 1480 1480 1480 1480 1481 1481 1481 1481 1482 1481 1481 1481 1481 1481 1479 1477 1478 1479 1479 1480 1480 1481 1481 1481 1481 1482 1482 1484 1485 1486 1487 1489 1490 1491 1492
1472 1472 1473 1473 1474 1474 1474 1474 1474 1475 1475 1475 1475 1475 1475 1475 1476 1476 1475 1475 1475 1475 1474 1471 1471 1472 1473 1474 1474 1474 1474 1475 1475 1475 1476 1477 1478 1479 1481 1482 1483 1485 1486
1467 1467 1468 1468 1468 1468 1469 1469 1469 1469 1469 1470 1470 1470 1470 1470 1470 1470 1470 1470 1469 1469 1469 1467 1466 1466 1467 1468 1468 1468 1468 1468 1469 1469 1470 1470 1471 1472 1473 1475 1476 1478 1479
1461 1461 1462 1462 1463 1463 1463 1463 1463 1463 1463 1464 1464 1464 1464 1464 1463 1464 1464 1464 1464 1463 1463 1462 1461 1460 1461 1462 1462 1462 1461 1462 1462 1463 1463 1464 1465 1466 1467 1468 1469 1470 1472
1455 1456 1456 1457 1457 1457 1457 1457 1458 1458 1458 1458 1458 1458 1458 1458 1457 1458 1458 1458 1458 1458 1457 1456 1456 1455 1456 1456 1457 1457 1456 1456 1456 1457 1457 1457 1458 1459 1460 1461 1462 1463 1465
1449 1450 1450 1450 1451 1451 1451 1452 1453 1452 1452 1452 1452 1452 1452 1452 1452 1452 1452 1452 1453 1452 1452 1451 1451 1450 1450 1451 1452 1452 1451 1450 1449 1451 1451 1451 1452 1452 1453 1455 1455 1457 1458
1443 1443 1444 1444 1444 1445 1446 1446 1447 1447 1446 1446 1446 1446 1446 1446 1446 1446 1446 1446 1446 1446 1447 1446 1445 1444 1445 1445 1446 1445 1445 1445 1444 1444 1446 1444 1445 1446 1447 1448 1449 1450 1451
1437 1437 1438 1438 1438 1439 1440 1440 1441 1441 1441 1441 1440 1440 1440 1440 1440 1441 1440 1440 1440 1440 1440 1440 1440 1439 1440 1440 1441 1441 1440 1439 1438 1439 1440 1438 1438 1439 1440 1441 1442 1443 1444
1432 1432 1432 1432 1433 1433 1434 1434 1435 1435 1435 1435 1435 1435 1435 1435 1435 1436 1435 1434 1434 1434 1434 1435 1434 1434 1435 1435 1435 1435 1435 1434 1432 1431 1433 1433 1432 1432 1433 1434 1435 1436 1437
1426 1427 1427 1427 1427 1427 1428 1429 1430 1430 1429 1429 1429 1429 1430 1430 1430 1430 1430 1429 1428 1428 1428 1428 1428 1428 1428 1429 1429 1429 1429 1428 1427 1426 1426 1428 1427 1428 1427 1427 1428 1429 1430